Theta_e
317 317 313 312 312 311 311 310 310 310 311 312 313 315 315 316 317 317 318 320 320 321 320 318 320 319 320 318 320 319 318 319 320 318 316 313 314 314 313 313 311 312 310
316 313 311 311 310 310 309 308 308 308 309 310 310 311 310 311 312 314 315 314 313 313 312 314 311 312 311 309 312 313 313 314 315 316 313 312 311 310 310 310 308 307 307
314 311 311 310 309 308 307 306 305 304 306 307 308 308 309 308 309 309 309 309 309 309 308 308 309 309 309 309 309 309 309 308 307 309 310 307 307 306 306 305 305 305 304
309 312 310 309 308 307 306 305 305 304 304 302 303 305 306 307 307 307 307 307 307 307 307 307 308 309 308 309 308 308 308 306 304 305 305 305 305 304 304 304 304 304 304
310 310 309 309 308 307 305 304 303 303 303 303 302 301 303 304 304 304 305 305 305 304 304 305 304 304 304 304 303 302 301 302 303 304 304 304 304 304 302 303 303 303 303
309 309 309 307 306 305 303 303 303 302 301 300 301 299 299 299 299 300 301 301 301 302 301 299 298 298 298 299 299 300 302 301 302 303 303 302 302 302 303 302 302 304 304
309 309 307 306 305 302 303 303 301 301 300 299 299 299 298 297 296 297 299 300 301 300 301 301 300 299 300 301 301 302 301 301 301 302 303 303 303 302 302 302 301 302 304
309 305 305 305 303 301 303 302 301 300 299 299 299 299 298 297 296 297 297 299 299 300 299 301 301 301 301 301 302 303 303 302 302 302 301 301 302 302 302 302 302 303 303
306 304 303 303 302 303 301 301 301 300 300 300 300 299 299 298 297 298 299 299 300 300 300 301 301 301 303 303 303 303 303 303 302 302 300 300 300 301 302 303 304 304 305
305 304 303 301 301 301 301 301 301 301 301 301 301 301 300 300 299 300 301 302 302 302 302 301 303 303 303 303 303 303 303 303 303 302 303 301 301 301 301 301 304 305 305
304 304 303 303 302 301 302 303 303 303 304 304 303 302 302 301 301 301 302 302 302 303 302 303 303 304 303 304 303 304 303 303 303 303 303 303 303 303 302 302 302 303 304
305 304 303 302 302 303 304 304 305 304 305 305 304 304 304 303 302 302 303 304 304 304 303 303 303 303 303 303 303 303 303 303 302 302 303 302 303 303 303 302 303 303 304
305 304 302 303 303 303 303 304 305 304 303 304 304 304 304 304 304 304 304 304 304 304 304 304 303 303 303 302 303 302 303 302 302 302 302 302 303 302 303 303 303 303 303
304 304 303 302 304 304 304 304 305 305 304 305 305 305 304 304 304 304 304 303 303 303 304 304 303 303 303 302 303 302 302 302 302 302 302 302 302 303 303 303 303 303 303
303 304 303 303 304 304 304 304 303 304 305 304 305 305 305 305 305 304 304 305 304 304 305 304 304 304 303 303 302 302 302 302 302 302 302 302 303 303 303 303 303 302 302
304 304 303 304 304 304 304 306 303 304 304 305 305 305 305 305 305 305 305 304 304 304 305 304 304 303 303 303 303 303 303 302 302 302 302 302 302 302 302 302 302 302 302
305 303 304 304 304 304 305 305 304 305 305 305 306 305 305 305 305 305 305 305 304 304 304 304 304 304 304 304 304 303 303 303 302 302 302 302 302 302 302 302 302 303 303
303 302 304 304 304 304 305 305 305 307 307 307 305 305 305 304 304 304 305 305 305 305 304 305 304 303 304 305 305 304 304 303 303 303 302 302 302 302 302 303 303 303 303
304 304 304 305 305 305 305 306 305 307 307 306 306 306 306 306 305 304 304 305 304 304 304 304 304 304 304 304 305 305 305 305 304 304 304 303 302 302 303 303 303 303 303
302 302 304 305 305 305 305 306 306 306 306 306 307 305 305 305 305 305 306 304 304 304 303 303 303 303 304 304 304 305 306 306 306 305 304 304 304 303 303 302 303 303 303
304 303 303 305 305 305 305 305 305 306 306 305 305 305 304 306 304 304 304 303 304 303 303 302 302 302 303 304 304 303 305 305 306 306 306 305 305 305 304 303 302 303 303
304 304 304 305 305 305 306 305 305 306 305 305 305 304 304 303 303 302 304 303 303 303 302 302 301 301 302 302 304 304 304 304 305 307 306 305 306 306 305 304 302 302 303
304 304 304 304 304 304 305 305 304 305 304 303 302 302 301 302 303 303 303 303 302 302 301 301 301 301 302 302 302 304 304 304 304 305 306 307 306 306 307 305 305 304 304
303 303 304 303 303 304 303 304 304 303 303 303 303 304 304 302 302 302 301 301 301 301 301 300 300 300 301 300 301 303 304 304 304 304 304 306 305 306 307 307 305 305 304
302 303 303 303 303 302 302 302 302 302 302 302 302 301 301 301 300 300 299 300 300 300 300 300 299 300 301 300 300 302 304 304 305 305 304 306 305 307 307 305 304 303 303
302 302 302 302 302 302 302 302 302 301 301 300 300 299 299 298 299 299 300 299 300 300 300 300 300 300 301 299 300 301 304 304 305 306 305 304 305 307 307 306 305 304 304
Wind_Speed
24 23 26 22 20 22 24 26 26 25 23 22 19 17 16 13 11 9 9 10 9 11 4 6 8 8 9 9 9 9 9 6 11 9 6 3 3 6 7 11 7 10 8
21 21 19 19 20 23 23 23 24 24 22 19 20 20 21 21 17 12 9 8 10 10 13 11 15 14 15 14 12 9 7 6 7 7 6 1 2 7 10 11 10 9 12
18 19 18 19 18 20 22 23 24 25 23 21 20 19 17 18 17 15 16 14 14 14 14 12 12 10 9 8 10 7 6 4 1 0 3 2 4 4 4 4 6 6 6
18 17 18 20 16 18 23 21 22 22 21 20 21 17 17 17 16 14 13 12 12 12 12 12 10 10 11 12 10 10 6 5 5 2 2 1 0 4 3 1 2 5 2
20 18 18 19 18 18 22 21 21 21 20 20 21 21 19 17 17 14 13 13 13 14 12 10 10 10 8 6 2 3 4 4 3 3 4 3 3 4 4 4 3 3 3
19 17 17 18 18 20 20 19 19 20 21 21 22 20 19 17 14 13 14 16 15 13 12 13 13 13 16 15 17 12 10 8 6 4 5 5 6 5 5 6 5 6 4
19 18 15 14 17 21 20 18 19 21 21 23 22 21 21 19 17 11 13 12 12 13 13 13 12 14 12 13 13 11 9 8 8 8 5 5 5 6 5 6 7 8 4
18 18 15 13 17 21 18 20 21 21 20 21 21 22 23 22 19 16 16 14 14 14 15 17 15 11 13 9 6 6 7 7 5 4 4 5 5 4 6 9 10 7 5
19 17 15 16 19 18 19 21 20 20 19 19 20 24 26 25 21 24 19 16 17 17 16 15 11 11 11 10 9 9 10 8 7 8 8 9 7 8 7 7 8 6 5
19 16 14 16 17 20 19 19 22 19 19 17 18 23 23 24 24 22 19 15 14 13 12 13 13 12 11 10 11 9 8 9 9 6 7 8 8 5 4 6 6 5 7
17 15 14 15 18 18 19 23 24 24 24 25 24 22 20 21 21 21 18 13 13 11 10 10 11 13 13 12 12 11 10 8 8 7 8 7 5 2 2 4 3 5 5
16 14 14 15 16 18 22 24 24 25 25 27 27 27 24 22 19 19 19 17 15 15 18 17 16 15 14 13 13 12 9 8 8 6 7 7 7 6 6 5 5 4 2
15 13 13 15 14 16 20 25 25 26 22 24 29 25 24 22 21 20 19 17 16 16 15 13 14 15 14 12 13 13 12 10 9 9 8 8 4 3 5 4 5 5 6
14 12 13 13 12 14 17 23 26 27 26 27 27 29 29 26 24 24 25 22 22 20 21 20 20 19 20 17 13 14 14 14 13 9 6 6 7 6 4 4 5 3 3
14 11 11 12 11 11 16 19 21 25 26 27 27 24 24 24 23 21 21 23 22 21 18 18 20 17 17 22 23 16 15 15 13 12 9 7 7 6 6 5 5 6 9
10 10 10 11 9 10 11 12 17 20 20 20 21 23 25 22 27 26 26 27 27 26 28 28 21 17 18 19 16 21 21 15 14 13 11 9 7 7 7 7 8 9 10
7 10 9 10 8 8 10 12 11 18 19 20 23 19 22 21 20 22 24 25 25 25 28 25 25 25 20 10 14 14 18 17 17 15 14 13 10 8 8 8 9 10 11
10 11 9 8 8 8 9 10 10 12 13 15 18 20 21 20 20 20 21 19 20 22 21 19 21 20 22 21 13 11 13 12 15 14 13 12 13 12 11 11 11 11 11
7 8 10 10 10 9 8 8 9 11 12 13 16 14 18 20 21 21 22 21 21 21 20 20 19 17 16 21 17 11 9 8 10 10 11 11 10 6 7 9 9 9 10
9 10 10 9 9 9 9 9 8 9 10 10 13 16 15 14 17 17 18 20 20 20 20 19 20 18 14 16 19 17 15 11 9 9 11 10 8 7 7 4 3 5 6
6 6 10 10 9 8 9 9 9 9 8 11 13 14 16 13 14 15 16 19 18 19 18 19 19 19 16 15 17 16 14 14 9 8 7 8 9 5 5 4 3 4 5
4 4 5 7 7 8 9 9 10 10 10 11 9 10 12 13 18 20 17 17 18 18 18 17 18 19 16 17 17 16 13 14 12 9 9 7 7 5 6 9 6 6 8
4 4 4 5 6 8 8 8 9 10 10 13 14 13 17 17 16 17 17 17 17 17 17 16 18 17 17 15 17 16 14 13 11 10 9 7 5 6 6 5 8 8 7
3 4 3 3 4 6 6 7 7 9 9 10 11 12 13 14 15 16 17 17 15 15 15 15 16 16 17 16 16 17 14 11 9 7 6 4 4 5 5 7 9 10 10
2 2 2 2 2 4 6 6 7 8 9 10 11 12 13 13 15 16 17 15 16 15 14 14 14 15 16 16 15 15 14 11 10 7 4 3 4 5 6 8 9 9 8
2 0 1 2 3 3 4 5 8 9 10 11 12 13 14 12 15 15 14 15 15 13 13 13 15 16 15 15 13 12 13 9 9 8 5 3 4 4 4 6 6 5 5
Wind_Direction
347 343 346 347 354 0 6 8 13 19 16 28 28 25 16 5 350 334 328 325 312 301 235 146 146 129 124 109 142 132 155 104 114 127 120 189 260 237 259 267 286 275 292
342 341 353 358 359 4 3 10 9 13 15 21 32 39 42 38 33 34 49 64 73 72 76 67 64 84 87 75 95 99 87 113 99 109 162 298 225 275 270 280 279 282 277
352 348 346 0 5 10 11 9 5 4 8 12 20 30 41 38 33 35 55 67 75 75 65 53 56 55 58 35 17 32 31 27 6 122 227 248 252 273 294 310 316 311 316
7 7 359 1 2 6 9 4 5 9 13 15 21 27 36 40 38 36 39 45 47 45 35 17 357 339 338 343 348 358 353 346 5 70 161 239 31 300 48 355 318 329 332
16 3 7 2 6 5 7 7 9 16 21 21 35 33 39 45 49 45 48 49 39 39 43 40 47 40 33 30 5 15 71 64 82 107 109 100 79 86 58 13 5 4 58
11 9 1 7 7 12 6 15 18 22 26 28 29 32 30 25 27 31 26 25 30 37 39 45 47 61 63 78 74 86 107 103 82 99 90 97 91 76 58 49 53 77 71
14 7 14 6 13 16 17 18 21 20 24 31 33 34 28 25 20 30 56 35 47 51 56 60 59 65 71 68 59 54 51 78 87 96 87 94 92 81 68 52 64 86 62
12 14 18 21 23 22 26 24 23 21 27 33 29 32 29 25 33 52 47 51 60 62 64 65 67 66 83 81 62 62 63 62 74 87 78 107 105 85 77 69 75 72 64
17 15 27 31 28 29 29 30 30 30 34 34 30 32 40 27 58 59 54 52 58 64 65 81 66 60 61 58 50 49 44 52 68 71 81 112 104 85 82 59 39 35 30
22 23 31 42 39 38 40 40 41 37 34 31 28 30 42 38 58 68 70 60 64 61 53 43 45 46 43 47 57 59 63 60 70 81 69 81 86 80 44 43 14 9 6
29 42 47 46 48 48 40 43 45 47 45 48 48 44 41 45 47 60 66 59 57 52 45 44 46 49 49 55 58 50 57 60 51 59 74 92 92 127 25 35 31 14 5
38 51 52 49 52 42 44 43 47 48 52 47 44 45 46 49 48 48 47 48 55 57 59 55 53 52 49 54 51 45 41 59 73 71 88 90 81 77 52 46 44 51 31
41 50 47 48 48 41 38 47 52 52 40 43 41 47 47 52 49 52 53 51 53 53 49 50 53 55 51 37 44 45 47 54 67 73 62 58 68 71 50 51 47 50 24
42 48 48 46 46 40 36 44 49 47 42 35 45 47 50 53 51 48 54 52 53 50 46 41 42 43 47 44 40 44 44 50 47 52 54 57 68 75 79 74 79 74 73
38 44 49 43 55 41 38 44 47 46 40 49 44 45 47 47 46 54 50 48 52 55 55 54 57 59 56 53 53 53 49 49 48 47 58 71 78 81 85 82 83 95 100
41 42 55 49 52 40 44 40 42 43 46 45 44 44 48 54 55 56 64 60 58 54 48 48 44 41 48 54 50 47 47 53 41 52 68 74 81 89 91 98 101 106 105
40 55 46 48 49 52 42 46 42 54 50 44 46 50 52 48 47 55 46 44 43 48 47 51 44 33 34 29 42 38 37 45 56 58 62 67 79 92 100 104 105 108 106
54 59 57 51 57 64 51 36 38 41 40 44 55 44 55 51 48 53 52 43 36 31 31 24 22 28 33 35 43 51 57 60 49 57 60 60 66 76 86 95 102 103 103
61 66 60 58 64 63 55 57 54 45 38 49 38 40 35 33 35 34 46 40 31 27 24 22 20 17 16 30 34 40 40 40 38 39 46 64 69 65 66 84 93 100 105
73 86 68 63 65 63 60 57 48 46 45 41 38 36 49 36 37 32 29 27 24 22 18 19 17 17 19 18 28 35 44 49 48 36 51 60 64 64 57 80 93 107 115
67 77 74 63 61 58 57 53 46 37 41 35 41 32 36 29 28 24 23 19 17 14 12 16 19 18 20 17 28 31 35 37 31 51 38 46 45 61 14 43 97 126 113
66 76 67 62 53 51 49 46 45 43 41 36 26 33 38 27 22 14 15 10 11 10 10 16 19 18 18 11 21 25 29 34 37 38 48 44 46 47 33 48 106 119 96
95 96 66 42 42 41 40 39 37 38 35 31 23 23 10 15 7 4 3 4 1 5 10 16 17 18 14 11 18 23 28 25 25 35 33 38 46 61 72 76 80 106 120
94 88 82 49 31 21 20 23 19 16 15 11 7 4 6 1 0 360 356 356 2 5 7 7 11 17 13 9 19 18 17 18 11 15 25 45 55 70 79 91 101 102 106
121 94 47 43 30 5 360 356 356 354 355 353 349 345 344 346 348 351 356 0 1 1 6 4 11 13 7 5 13 16 15 16 19 20 26 45 87 84 95 110 111 110 107
150 314 288 306 324 340 350 343 336 340 340 341 343 344 345 350 353 5 6 358 3 1 3 2 1 2 360 3 8 6 14 22 20 21 31 70 107 113 121 126 123 114 105